ECHOSTAR 23

Last updated on Wed Nov 20 2024 00:02:42 GMT+0000 (Coordinated Universal Time)

1 42070U 17014A 24323.84388617 -.00000054 00000+0 00000+0 0 9993 2 42070 0.0184 302.3891 0002167 292.1761 17.7196 1.00271434 28157
UTC large
Height (km)
Speed (km/s)
/
Latitude / Longitude
Inclination (degrees)
Orbital Period (minutes)
Azimuth
Elevation
Range (km)
Doppler Factor

Next 0 passes for location: London (51.5072 / 0.1276)

Sorry there are no passes over London.